Globalstar
NORAD ID: 25873
Int'l Code: 1999-041B
Perigee: 1,420.1 km
Apogee: 1,421.4 km
Inclination: 52.0 °
Period: 114.1 minutes
Semi major axis: 7791 km
Launch date: July 25, 1999
Source: Globalstar (GLOB)
Two Line Element Set (TLE):
1 25873U 99041B 13142.81483841 -.00000072 00000-0 17983-3 0 1427
2 25873 052.0070 061.4352 0000843 015.4754 026.9921 12.62263700637827
Source: AFSPC
NASA's NSSDC Master Catalog entry for GLOBALSTAR M026